Location: Terra Rouge Observatory
(46.0000°N, 62.7500°W)
Time: 05:03:53
(UTC-03:00)

Daily predictions for brighter satellites

Satellite Brightness Start Highest point End
(mag) Time Altitude Azimuth Time Altitude Azimuth Time Altitude Azimuth
Cosmos 468 Rocket 4.3 00:06:16 60° NE 00:06:16 60° NE 00:10:40 10° NNE
Timation 1 Rocket 4.3 00:00:57 10° NNW 00:06:48 72° WSW 00:06:48 72° WSW
Meteor 1-27 Rocket 4.4 00:06:27 43° WSW 00:07:23 47° WNW 00:12:48 10° N
Cosmos 2219 Rocket 3.0 00:11:47 38° W 00:13:17 46° WNW 00:18:43 10° NNE
Cosmos 2298 Rocket 4.4 00:08:36 10° NNW 00:13:14 60° WNW 00:13:14 60° WNW
ATLAS 3B R/B 3.5 00:09:54 10° NNW 00:16:27 43° NE 00:18:51 32° E
CZ-4B R/B 4.4 00:15:53 10° N 00:20:18 39° WNW 00:20:22 39° WNW
Cosmos 2074 Rocket 4.2 00:26:52 10° N 00:32:59 60° ENE 00:32:59 60° ENE
Cosmos 2285 Rocket 3.9 00:36:00 87° ENE 00:36:00 87° ENE 00:42:21 10° NNE
Cosmos 2297 4.1 00:32:45 10° NNW 00:37:35 57° WNW 00:37:35 57° WNW
CZ-4B R/B 4.4 00:44:54 15° NNE 00:44:54 15° NNE 00:45:39 10° NNE
Cosmos 2369 Rocket 3.6 00:38:25 10° N 00:43:17 29° NE 00:44:29 27° ENE
Cosmos 1607 4.2 00:39:20 10° NNW 00:45:38 61° NE 00:46:20 57° ENE
CZ-2C R/B 3.7 00:55:12 47° NW 00:55:12 47° NW 00:58:47 10° NNW
Cosmos 1943 Rocket 4.1 00:57:56 10° N 01:02:31 24° NE 01:04:56 18° E
Meteor 2-13 Rocket 4.4 00:57:17 10° N 01:03:03 79° NNE 01:03:03 79° NNE
SL-16 R/B 2.4 01:05:04 65° NNW 01:05:04 65° NNW 01:10:21 10° NNE
CZ-4C R/B 3.8 00:58:54 10° NW 01:04:36 33° WSW 01:04:36 33° WSW
Cosmos 1238 Rocket 4.4 01:11:57 43° ENE 01:11:57 43° ENE 01:16:26 10° NNE
Gbstr 26 Del rocket 4.4 01:12:09 62° SW 01:13:46 88° SSE 01:21:41 10° ENE
Cosmos 1125 Rocket 4.1 01:09:26 10° NNW 01:13:35 55° NNW 01:13:35 55° NNW
Cosmos 1763 Rocket 4.4 01:21:58 43° NW 01:21:58 43° NW 01:26:40 10° N
Cosmos 2333 Rocket 4.3 01:21:21 14° W 01:24:32 21° NW 01:28:52 10° N
Cosmos 2237 Rocket 4.0 01:26:24 20° W 01:28:34 24° NW 01:33:11 10° N
USA 267 4.2 01:23:03 10° E 01:29:11 45° NNE 01:35:21 10° NW
ATLAS CENTAUR R/B 3.2 01:31:51 30° N 01:31:51 30° N 01:34:13 10° NNE
ATLAS 2AS CENTAUR R/B 2.9 01:32:49 69° SW 01:34:00 89° NW 01:42:12 10° NE
Nadezhda 1 Rocket 4.0 01:37:16 74° WNW 01:37:16 74° WNW 01:43:24 10° N
CZ-2C R/B 3.6 01:35:12 10° N 01:40:15 39° WNW 01:40:15 39° WNW
NOSS 3-2 (A) 4.4 01:38:40 10° NW 01:45:55 59° NE 01:51:44 19° ESE
Meteor 2-4 Rocket 3.8 01:48:13 68° NNE 01:48:13 68° NNE 01:52:56 10° NNE
NOSS 2-3 (E) 4.4 01:52:02 60° NNW 01:52:02 60° NNW 01:57:25 10° NE
Cosmos 1295 Rocket 4.3 01:50:21 10° N 01:56:29 80° E 01:56:33 80° E
Cosmos 540 Rocket 4.1 02:01:13 49° NW 02:01:13 49° NW 02:05:39 10° NNE
Cosmos 1943 3.4 02:01:19 62° E 02:01:19 62° E 02:06:23 10° NNE
ATLAS 3B R/B 3.1 02:00:47 10° NW 02:06:04 45° W 02:06:04 45° W
Cosmos 2341 Rocket 3.9 02:02:25 10° NNW 02:08:32 70° W 02:08:32 70° W
Cosmos 2228 4.1 02:04:54 10° N 02:08:21 42° NE 02:08:21 42° NE
Cosmos 2263 4.2 02:03:29 10° NNW 02:09:07 83° N 02:09:07 83° N
Meteor 2-19 Rocket 4.4 02:06:57 10° NNW 02:12:46 68° W 02:12:46 68° W
PSLV R/B 4.3 02:10:36 10° NNE 02:14:21 54° NE 02:14:21 54° NE
Cosmos 1241 Rocket 4.5 02:18:42 69° WSW 02:19:27 78° NW 02:26:07 10° NNE
Cosmos 1603 4.3 02:22:28 46° WNW 02:22:52 46° WNW 02:28:25 10° NNE
USA 238 DEB 3.9 02:17:30 10° NW 02:23:52 54° WSW 02:23:52 54° WSW
USA 238 3.9 02:17:36 10° NW 02:24:01 54° WSW 02:24:01 54° WSW
Resurs 1-4 Rocket 4.2 02:22:16 10° NE 02:25:34 17° E 02:27:26 14° ESE
Cosmos 44 3.9 02:21:38 10° NNW 02:25:03 46° N 02:25:03 46° N
Cosmos 1959 Rocket 4.4 02:20:13 10° N 02:26:30 86° E 02:27:14 71° SSE
Cosmos 2369 Rocket 2.9 02:22:09 10° NW 02:26:15 42° WNW 02:26:15 42° WNW
Cosmos 1025 Rocket 4.4 02:34:25 32° NW 02:34:25 32° NW 02:37:20 10° N
SL-08 R/B 4.4 02:27:15 10° N 02:33:35 86° E 02:34:28 68° SSE
SL-08 R/B 3.9 02:33:23 48° E 02:33:51 50° ENE 02:38:27 10° N
CZ-2D R/B 4.0 02:31:49 10° NE 02:35:39 20° E 02:37:35 17° ESE
BREEZE-M DEB (TANK) 3.6 02:38:07 45° ESE 02:38:07 45° ESE 02:45:45 10° ENE
USA 215 3.1 02:31:40 10° NE 02:38:15 90° SW 02:39:38 59° SW
H-2A R/B 4.2 02:36:22 10° N 02:38:27 23° NW 02:38:27 23° NW
COSMOS 2455 3.3 02:35:47 10° NNW 02:41:46 60° NE 02:46:09 19° SE
Cosmos 1680 Rocket 4.2 02:42:53 42° ESE 02:43:19 43° ESE 02:48:17 10° NE
Cosmos 1943 Rocket 2.2 02:41:09 10° NNW 02:46:26 65° W 02:46:26 65° W
RESURS DK-1 4.1 02:49:48 25° E 02:49:48 25° E 02:52:49 10° NE
SL-16 R/B 4.5 02:46:54 11° WNW 02:49:54 15° NW 02:53:11 10° N
Meteor 1-16 4.5 02:45:42 10° NNW 02:51:17 83° W 02:51:39 77° SSW
Cosmos 1766 4.2 02:49:23 10° N 02:53:10 44° ENE 02:53:10 44° ENE
COSMOS 2406 4.2 02:53:36 32° SE 02:54:56 36° ESE 03:00:09 10° NE
NOSS 3-2 (C) 3.9 02:48:33 10° NW 02:56:02 81° SW 03:03:07 14° SSE
Meteor 1-22 Rocket 4.3 02:50:48 10° N 02:56:23 71° ENE 02:57:39 52° SE
Meteor 1-4 Rocket 3.6 02:54:11 10° N 02:57:31 46° NE 02:57:31 46° NE
Cosmos 2058 Rocket 4.3 02:55:52 10° NNW 02:58:35 31° NW 02:58:35 31° NW
Cosmos 1066 Rocket 3.9 03:02:28 72° S 03:03:03 90° W 03:08:27 10° N
Cosmos 292 Rocket 4.0 03:05:52 58° WNW 03:05:55 58° WNW 03:10:45 10° NNE
Cosmos 724 4.2 03:00:06 10° NW 03:06:14 78° WSW 03:07:59 48° SSE
CENTAUR R/B 3.7 02:59:27 10° NW 03:07:02 57° NE 03:15:14 10° ESE
ARIANE 5 R/B 3.8 03:02:38 10° NNE 03:07:26 35° E 03:09:27 26° SE
Cosmos 1538 Rocket 4.5 03:07:58 44° WNW 03:08:23 45° WNW 03:13:22 10° N
Meteor 2-14 Rocket 4.3 03:03:29 10° NNW 03:09:37 74° W 03:10:57 55° SSW
ADEOS Rocket 3.9 03:03:58 10° NNE 03:09:39 43° E 03:13:04 24° SSE
SL-27 R/B 4.4 03:09:55 23° E 03:09:55 23° E 03:12:44 10° NE
ATLAS CENTAUR R/B 4.2 03:10:02 10° NNW 03:10:17 10° NNW 03:10:32 10° NNW
Cosmos 2218 Rocket 4.3 03:04:25 10° NNW 03:10:18 45° W 03:10:48 44° WSW
IRS-1C 4.3 03:05:03 10° NNE 03:10:22 64° ESE 03:11:38 49° SSE
SL-16 R/B 2.8 03:06:35 23° SE 03:10:32 66° ENE 03:16:39 10° N
USA 267 3.1 03:05:21 10° SE 03:11:55 83° SW 03:18:30 10° NW
Cosmos 1626 Rocket 3.5 03:12:10 82° NW 03:12:10 82° NW 03:16:27 10° N
Meteor 2-16 Rocket 4.3 03:06:23 10° NNW 03:12:29 79° W 03:14:06 51° S
Meteor 2-21 Rocket 4.4 03:07:53 10° NNW 03:13:58 64° W 03:15:08 53° SW
Cosmos 2366 rocket 4.2 03:08:10 10° NNW 03:14:12 48° W 03:14:57 46° WSW
Cosmos 923 Rocket 3.9 03:15:47 64° SW 03:16:35 79° WNW 03:21:58 10° NNE
GEOS 3 Rocket 4.2 03:18:17 10° NE 03:23:25 49° ESE 03:24:48 39° SSE
NOSS 3-4 (A) 3.4 03:22:20 48° SW 03:24:16 86° NW 03:30:51 10° NE
AQUA 3.7 03:19:32 10° NNE 03:24:20 84° WNW 03:25:01 65° SSW
NOSS 3-4 (C) 3.4 03:22:26 48° SW 03:24:22 87° NW 03:30:58 10° NE
Cosmos 1953 3.5 03:21:39 10° N 03:25:25 39° ENE 03:27:15 25° SE
ATLAS 2AS CENTAUR R/B 4.3 03:20:12 15° W 03:26:06 34° NNW 03:33:22 10° NE
Cosmos 1656 Rocket 3.5 03:23:51 10° NNW 03:29:14 67° WSW 03:30:32 49° S
Cosmos 1602 Rocket 3.8 03:32:50 53° W 03:32:58 53° WNW 03:37:20 10° N
IRS-P3 4.3 03:28:20 10° N 03:33:34 56° WNW 03:34:45 46° WSW
NOSS 3-2 (A) 4.3 03:29:49 10° NW 03:36:47 41° WSW 03:38:59 35° SSW
UNKNOWN OBJECT B 4.4 03:35:07 10° NNE 03:38:42 31° E 03:40:35 21° SE
Cosmos 1758 3.6 03:37:50 10° N 03:41:57 69° E 03:43:25 37° SSE
Meteor 1-21 4.1 03:45:26 40° SSW 03:47:31 77° WNW 03:53:08 10° N
UNK 3.7 03:48:48 47° SSW 03:49:57 64° WSW 03:54:31 10° NNW
Cosmos 2112 Rocket 4.2 03:50:18 41° SW 03:51:56 60° WNW 03:57:11 10° NNE
Aureole 1 Rocket 3.7 03:51:19 39° WSW 03:52:32 47° WNW 03:56:37 10° N
Cosmos 374 Rocket 4.0 03:53:20 10° NW 03:57:07 71° SW 04:01:03 10° SSE
Cosmos 2098 Rocket 3.7 03:56:23 10° N 03:59:12 33° ENE 04:01:03 16° SE
Tiangong 1 2.9 04:01:40 20° SE 04:01:40 20° SE 04:02:46 10° ESE
NPP 4.4 03:56:26 10° N 04:01:21 37° WNW 04:03:09 29° WSW
Abrixas 2.7 04:02:59 57° NNW 04:03:01 57° N 04:05:48 10° ENE
Cosmos 1733 3.9 03:59:17 10° N 04:03:01 52° ENE 04:06:24 12° SSE
Nadezhda 3 Rocket 4.3 04:01:16 31° SW 04:03:54 49° WNW 04:10:03 10° N
Cosmos 1624 Rocket 3.9 04:00:10 10° NNW 04:05:20 63° WSW 04:09:23 16° S
Resurs 1-4 Rocket 2.1 04:00:41 10° N 04:05:56 71° WNW 04:08:31 31° SSW
MOS 1 Rocket 4.3 04:02:20 10° NNE 04:06:25 40° E 04:10:15 12° SSE
Lacrosse 5 rocket 2.2 04:05:58 31° S 04:07:48 49° SE 04:12:18 10° ENE
Cosmos 2369 4.5 04:04:39 10° NNW 04:10:19 55° ENE 04:15:56 10° SE
Spot 4 Rocket 4.2 04:06:01 10° N 04:11:04 55° WNW 04:13:23 30° SW
Cosmos 389 Rocket 3.1 04:07:55 10° N 04:11:33 58° ENE 04:15:05 10° SSE
EXPRESS MD2 3.8 04:06:02 10° WNW 04:12:51 76° NNE 04:16:12 10° ESE
Cosmos 1544 3.7 04:09:41 10° NNW 04:13:06 35° W 04:13:06 35° W
Cosmos 1805 3.7 04:09:26 10° NNW 04:13:09 40° W 04:13:40 38° WSW
Cosmos 1271 Rocket 2.8 04:09:49 10° NNW 04:13:28 49° W 04:14:12 42° SW
Cosmos-2242 3.3 04:09:06 10° N 04:13:32 69° E 04:17:53 10° SSE
CZ-3A R/B 2.4 04:13:37 13° N 04:13:45 13° N 04:14:52 10° NNE
Cosmos 1758 Rocket 3.4 04:13:55 30° SSW 04:16:00 77° W 04:20:21 10° N
CZ-2D R/B 2.2 04:10:55 10° N 04:16:10 60° WNW 04:18:55 27° SW
NOSS 5 (C) 4.2 04:15:33 48° SW 04:16:22 89° ESE 04:19:26 10° NE
USA 32 4.0 04:14:02 26° SSW 04:17:00 68° W 04:22:15 10° N
Cosmos 2056 Rocket 3.6 04:13:30 10° NNW 04:18:43 53° WSW 04:23:15 13° S
USA 161 1.5 04:17:36 28° SSE 04:18:59 81° ENE 04:21:52 10° N
USA 215 4.2 04:14:49 10° NE 04:20:54 43° NNW 04:26:57 10° W
Cosmos 921 Rocket 3.2 04:17:49 10° NNW 04:22:12 54° WSW 04:25:38 16° S
COSMOS 2455 3.7 04:22:23 10° NW 04:27:17 27° WSW 04:29:08 23° SW
RESURS DK-1 3.4 04:25:43 25° W 04:27:18 33° NW 04:31:06 10° NNE
ADEOS 4.0 04:23:17 10° N 04:28:17 47° WNW 04:31:11 23° SW
Cosmos 1842 4.4 04:28:16 24° W 04:29:04 26° WNW 04:32:22 10° NNW
DNEPR-1 R/B 3.4 04:25:54 10° NW 04:30:09 87° SW 04:34:34 10° SE
Cosmos 1727 Rocket 4.0 04:25:21 10° S 04:31:29 84° E 04:37:42 10° N
Cosmos 1980 Rocket 4.4 04:27:07 10° N 04:32:03 29° NE 04:36:56 10° ESE
Cosmos 2082 Rocket 3.6 04:28:01 10° S 04:33:07 35° ESE 04:38:15 10° NE
Cosmos 1833 Rocket 4.2 04:29:37 10° SSE 04:34:32 32° ESE 04:39:28 10° NE
IRS-1D 4.2 04:30:34 10° N 04:35:23 39° WNW 04:38:24 21° WSW
Cosmos 1656 4.2 04:31:00 10° NNW 04:36:24 60° ENE 04:41:45 10° SE
Cosmos 1953 Rocket 4.0 04:35:11 24° SW 04:37:30 45° WNW 04:41:49 10° N
Cosmos 1153 Rocket 4.4 04:31:57 10° N 04:38:08 86° W 04:44:15 10° S
COSMOS 2406 3.9 04:35:40 20° WSW 04:39:11 41° NW 04:44:37 10° NNE
NOSS 2-2 (E) 3.6 04:36:50 24° SW 04:39:19 74° NW 04:44:18 10° NE
MOZ.5/SAFIR/RUBIN 5/SL-8 4.1 04:40:23 11° S 04:44:34 45° W 04:49:05 10° NNW
SL-27 R/B 3.8 04:43:36 20° W 04:44:59 26° WNW 04:48:04 10° N
Intercosmos 25 4.5 04:36:51 10° N 04:45:05 82° W 04:49:55 10° S
ARIANE 5 R/B 3.4 04:41:49 10° N 04:46:30 34° WNW 04:49:48 17° WSW
CZ-2D R/B 3.6 04:43:32 10° N 04:47:33 53° WNW 04:50:23 18° SW
Meteor 1-16 Rocket 4.1 04:46:12 10° NNW 04:51:39 87° W 04:56:57 10° S
Cosmos 1452 Rocket 3.5 04:48:35 10° NNW 04:53:46 62° WSW 04:58:56 10° S
SL-16 R/B 3.7 04:51:39 16° SW 04:54:39 22° W 04:59:22 10° NW
Landsat 4 3.7 04:51:22 10° S 04:55:00 54° WSW 04:58:42 10° NNW
ADEOS Rocket 3.8 04:49:46 10° N 04:55:06 36° WNW 05:00:01 14° SW
USA 267 4.1 04:50:22 10° S 04:55:32 25° SW 05:00:45 10° WNW
Cosmos 1707 2.8 04:52:34 14° SSW 04:55:50 60° W 04:59:42 10° N
CENTAUR R/B 3.4 04:50:23 10° NW 04:57:48 45° WSW 05:05:39 10° S
Cosmos 1470 3.6 04:57:02 10° NNW 05:00:31 31° W 05:03:45 11° SSW
GEOS 3 Rocket 4.5 04:56:29 10° NNE 05:01:21 39° NW 05:05:55 12° WSW
Cosmos 1953 3.9 04:58:55 10° NW 05:01:34 17° W 05:02:57 15° WSW
Cosmos 1459 Rocket 4.0 04:56:45 10° N 05:02:55 87° E 05:09:11 10° S
Cosmos 1420 Rocket 4.0 05:05:17 10° NNW 05:10:35 68° WSW 05:15:50 10° S
Okean O Rocket 1.7 05:06:57 10° NNE 05:11:26 82° ESE 05:15:50 10° SSW
Cosmos 1818 3.9 05:07:00 13° SW 05:11:51 57° NW 05:17:15 10° NNE
ADEOS II 2.3 05:06:50 10° NNE 05:12:08 78° ESE 05:17:22 10° S
UNKNOWN OBJECT B 4.2 05:09:52 10° NNW 05:13:05 24° WNW 05:16:05 11° WSW
COSMOS 2487 2.6 05:09:56 11° SSW 05:13:18 58° WNW 05:16:51 10° NNE
NOSS 2-2 (D) 4.3 05:11:50 12° WSW 05:15:28 44° NW 05:20:15 10° NNE
Cosmos 1378 3.4 05:11:54 10° SSW 05:15:33 51° WNW 05:19:14 10° N
Cosmos 1048 Rocket 4.2 05:13:42 10° SSW 05:18:49 76° ESE 05:23:57 10° NNE
Meteor 1-24 Rocket 3.7 05:14:42 10° S 05:20:10 90° ESE 05:25:54 10° N
Cosmos 1269 Rocket 4.1 05:26:17 10° SSW 05:31:34 86° WNW 05:36:53 10° NNE
PSLV R/B 4.4 05:30:02 10° N 05:33:57 44° WNW 05:37:52 10° SW
Meteor 2-17 Rocket 4.5 05:30:10 10° NNW 05:36:09 64° W 05:42:06 10° S
CZ-4B DEB 4.2 05:32:13 10° NNE 05:37:44 76° WNW 05:43:11 10° SSW
